Weather Roundup
Issued by NWS Springfield, MO

Home | Current Version | Previous Version | Text Only | Print | Product List | Glossary On
Versions: 1 2 3 4 5 6 7 8 9 10 11 12 13 14 15 16 17 18 19 20 21 22 23 24 25 26 27 28 29 30 31 32 33 34 35 36 37 38 39 40 41 42 43 44 45 46 47 48 49 50
000
NZUS99 KSGF 251857
HRRSGF

HOURLY WEATHER
NATIONAL WEATHER SERVICE SPRINGFIELD MO
200 PM CDT THU MAY 25 2017

......SGF CWA......

CITY           SKY/WX    TMP DP  RH WIND       PRES   REMARKS
SPRINGFIELD    SUNNY     73  50  44 S9        29.72F
JOPLIN         SUNNY     78  56  46 S13       29.68F
WEST PLAINS    SUNNY     71  51  49 S8        29.77F
ROLLA          SUNNY     69  52  54 S5        29.73F
BRANSON        MOSUNNY   73  50  43 S5        29.76F

......SURROUNDING SGF CWA......

CITY           SKY/WX    TMP DP  RH WIND       PRES   REMARKS
CHANUTE        SUNNY     76  53  44 SE15G25   29.64F
PARSONS        SUNNY     77  53  43 SE13G21   29.65F
COFFEYVILLE    SUNNY     77  57  50 S17G25    29.64F
EMPORIA        CLOUDY    75  53  46 S22G30    29.58F
HARRISON AR    SUNNY     74  53  48 S10       29.75F

......KANSAS AND MISSOURI......

CITY           SKY/WX    TMP DP  RH WIND       PRES   REMARKS
KANSAS CTY INT MOSUNNY   73  54  51 S10G20    29.65F
SEDALIA        SUNNY     73  52  47 S12       29.71F
ST JOSEPH      SUNNY     74  52  46 S12G23    29.65F
ST LOUIS       MOSUNNY   76  52  43 W8        29.72F
WICHITA        MOSUNNY   78  55  44 SE17G28   29.54S
TOPEKA         SUNNY     76  53  44 SE18G24   29.61F
OLATHE         SUNNY     72  55  55 S16       29.66F

......TENNESSEE......

CITY           SKY/WX    TMP DP  RH WIND       PRES   REMARKS
MEMPHIS        NOT AVBL
NASHVILLE      PTSUNNY   73  51  46 W13G25    29.75S

......ARKANSAS.......

CITY           SKY/WX    TMP DP  RH WIND       PRES   REMARKS
FAYETTEVILLE   SUNNY     75  54  47 S15       29.72F
FT SMITH       SUNNY     81  52  36 SE8       29.70F
LITTLE ROCK    SUNNY     77  54  44 SW9       29.78F

......OKLAHOMA.......

CITY           SKY/WX    TMP DP  RH WIND       PRES   REMARKS
TULSA          MOSUNNY   80  55  42 S20G26    29.62F
PONCA CITY     SUNNY     80  54  40 S16G28    29.55F
MCALESTER      SUNNY     82  58  43 S12G23    29.66F
OKLAHOMA CITY  MOSUNNY   82  57  42 S16G26    29.57F

......IOWA............

CITY           SKY/WX    TMP DP  RH WIND       PRES   REMARKS
DES MOINES     NOT AVBL
QUAD CITIES    PTSUNNY   70  54  56 VRB3      29.68F

......ILLINOIS........

CITY           SKY/WX    TMP DP  RH WIND       PRES   REMARKS
QUINCY         MOSUNNY   69  52  54 VRB3      29.71F
CHICAGO        PTSUNNY   67  53  61 N8        29.63S



USA.gov is the U.S. government's official web portal to all federal, state and local government web resources and services.